OK1UZT-13 Weather Reports


time (UTC)temp
C
wind
direction
speed
KPH
gust
KPH
rain 1hr
cm
rain 24hr
cm
rain mn
cm
humidity
%
barometer
mb
20260905235344 14 0.0 0.0 0.00 0.00 0.00 63 1023.0
20260905234344 14 0.0 0.0 0.00 0.00 0.00 63 1022.9
20260905233344 14 0.0 0.0 0.00 0.00 0.00 62 1022.9
20260905232344 15 0.0 0.0 0.00 0.00 0.00 61 1022.8
20260905231344 15 0.0 0.0 0.00 0.00 0.00 61 1022.7
20260905230344 15 0.0 0.0 0.00 0.00 0.00 60 1022.7
20260905225344 15 0.0 0.0 0.00 0.00 0.00 60 1022.6
20260905224344 15 0.0 0.0 0.00 0.00 0.00 59 1022.6
20260905223344 15 0.0 0.0 0.00 0.00 0.00 58 1022.5
20260905222344 15 0.0 0.0 0.00 0.00 0.00 58 1022.5
20260905221344 15 0.0 0.0 0.00 0.00 0.00 57 1022.4
20260905220344 15 0.0 0.0 0.00 0.00 0.00 57 1022.4
20260905215344 15 0.0 0.0 0.00 0.00 0.00 56 1022.4
20260905214344 15 0.0 0.0 0.00 0.00 0.00 56 1022.3
20260905213344 15 0.0 0.0 0.00 0.00 0.00 56 1022.3
20260905212344 15 0.0 0.0 0.00 0.00 0.00 56 1022.3
20260905211344 15 0.0 0.0 0.00 0.00 0.00 56 1022.0
20260905210344 16 0.0 0.0 0.00 0.00 0.00 55 1022.1
20260905205344 16 0.0 0.0 0.00 0.00 0.00 55 1022.0
20260905204344 16 0.0 0.0 0.00 0.00 0.00 54 1021.9
20260905203344 16 0.0 0.0 0.00 0.00 0.00 53 1021.9
20260905202344 16 0.0 0.0 0.00 0.00 0.00 53 1021.5
20260905201344 16 0.0 0.0 0.00 0.00 0.00 52 1021.5
20260905200344 16 0.0 0.0 0.00 0.00 0.00 52 1021.4
20260905195344 16 0.0 0.0 0.00 0.00 0.00 52 1021.2
20260905194344 16 0.0 0.0 0.00 0.00 0.00 52 1021.1
20260905193344 17 0.0 0.0 0.00 0.00 0.00 52 1020.9
20260905192344 17 0.0 0.0 0.00 0.00 0.00 52 1020.9
20260905191344 17 0.0 0.0 0.00 0.00 0.00 51 1020.9
20260905190344 17 0.0 0.0 0.00 0.00 0.00 51 1020.8
20260905185348 17 0.0 0.0 0.00 0.00 0.00 51 1020.7
20260905184342 17 0.0 0.0 0.00 0.00 0.00 51 1020.6
20260905183342 17 0.0 0.0 0.00 0.00 0.00 51 1020.5
20260905182342 17 0.0 0.0 0.00 0.00 0.00 51 1020.4
20260905181342 18 0.0 0.0 0.00 0.00 0.00 50 1020.2
20260905180342 18 0.0 0.0 0.00 0.00 0.00 49 1020.0
20260905175342 18 0.0 0.0 0.00 0.00 0.00 49 1019.8
20260905174342 18 0.0 0.0 0.00 0.00 0.00 49 1019.6
20260905173342 18 0.0 0.0 0.00 0.00 0.00 48 1019.5
20260905172342 18 0.0 0.0 0.00 0.00 0.00 48 1019.3
20260905171342 19 0.0 0.0 0.00 0.00 0.00 47 1019.3
20260905170342 20 0.0 0.0 0.00 0.00 0.00 45 1019.1
20260905165342 20 0.0 0.0 0.00 0.00 0.00 45 1018.9
20260905164342 20 0.0 0.0 0.00 0.00 0.00 45 1018.8
20260905163342 21 0.0 0.0 0.00 0.00 0.00 44 1018.7
20260905162343 21 0.0 0.0 0.00 0.00 0.00 44 1018.5
20260905161342 21 0.0 0.0 0.00 0.00 0.00 43 1018.4
20260905160342 21 0.0 0.0 0.00 0.00 0.00 44 1018.2
20260905155342 22 0.0 0.0 0.00 0.00 0.00 42 1018.2
20260905153342 21 0.0 0.0 0.00 0.00 0.00 44 1018.0
20260905152342 21 0.0 0.0 0.00 0.00 0.00 42 1017.9
20260905151342 21 0.0 0.0 0.00 0.00 0.00 42 1017.9
20260905150342 21 0.0 0.0 0.00 0.00 0.00 42 1018.1
20260905145342 21 0.0 0.0 0.00 0.00 0.00 43 1018.2
20260905144342 21 0.0 0.0 0.00 0.00 0.00 42 1017.9
20260905143342 21 0.0 0.0 0.00 0.00 0.00 43 1018.1
20260905142342 20 0.0 0.0 0.00 0.00 0.00 45 1017.9
20260905141343 20 0.0 0.0 0.00 0.00 0.00 45 1017.9
20260905140342 20 0.0 0.0 0.00 0.00 0.00 44 1018.0
20260905135342 21 0.0 0.0 0.00 0.00 0.00 43 1017.9
20260905134342 21 0.0 0.0 0.00 0.00 0.00 44 1018.0
20260905133342 21 0.0 0.0 0.00 0.00 0.00 45 1018.0
20260905132342 20 0.0 0.0 0.00 0.00 0.00 45 1017.9
20260905131342 20 0.0 0.0 0.00 0.00 0.00 48 1018.0
20260905130342 20 0.0 0.0 0.00 0.00 0.00 48 1018.1
20260905125342 20 0.0 0.0 0.00 0.00 0.00 47 1018.0
20260905124342 20 0.0 0.0 0.00 0.00 0.00 47 1018.1
20260905123342 19 0.0 0.0 0.00 0.00 0.00 48 1018.2
20260905122342 19 0.0 0.0 0.00 0.00 0.00 46 1018.6
20260905121342 20 0.0 0.0 0.00 0.00 0.00 46 1018.7
20260905120342 19 0.0 0.0 0.00 0.00 0.00 46 1018.7
20260905115342 20 0.0 0.0 0.00 0.00 0.00 47 1018.4
20260905114342 20 0.0 0.0 0.00 0.00 0.00 49 1018.5
20260905113342 19 0.0 0.0 0.00 0.00 0.00 50 1018.6
20260905112342 19 0.0 0.0 0.00 0.00 0.00 50 1018.9
20260905111342 18 0.0 0.0 0.00 0.00 0.00 51 1018.7
20260905110342 18 0.0 0.0 0.00 0.00 0.00 52 1018.6
20260905105342 18 0.0 0.0 0.00 0.00 0.00 54 1018.6
20260905104342 18 0.0 0.0 0.00 0.00 0.00 56 1018.6
20260905103342 18 0.0 0.0 0.00 0.00 0.00 56 1018.4
20260905102342 18 0.0 0.0 0.00 0.00 0.00 57 1018.6
20260905101342 17 0.0 0.0 0.00 0.00 0.00 59 1018.7
20260905100342 17 0.0 0.0 0.00 0.00 0.00 59 1018.6
20260905095342 17 0.0 0.0 0.00 0.00 0.00 60 1018.4
20260905094342 17 0.0 0.0 0.00 0.00 0.00 61 1018.5
20260905093342 17 0.0 0.0 0.00 0.00 0.00 64 1018.8
20260905092342 17 0.0 0.0 0.00 0.00 0.00 65 1018.6
20260905091342 16 0.0 0.0 0.00 0.00 0.00 66 1018.6
20260905090342 16 0.0 0.0 0.00 0.00 0.00 66 1018.5
20260905085342 16 0.0 0.0 0.00 0.00 0.00 67 1018.4
20260905084342 16 0.0 0.0 0.00 0.00 0.00 67 1018.3
20260905083342 16 0.0 0.0 0.00 0.00 0.00 67 1018.5
20260905082342 16 0.0 0.0 0.00 0.00 0.00 68 1018.5
20260905081342 15 0.0 0.0 0.00 0.00 0.00 73 1018.4
20260905080342 15 0.0 0.0 0.00 0.00 0.00 74 1018.3
20260905075342 15 0.0 0.0 0.00 0.00 0.00 74 1018.1
20260905074342 14 0.0 0.0 0.00 0.00 0.00 75 1018.1
20260905073342 14 0.0 0.0 0.00 0.00 0.00 76 1017.9
20260905072342 14 0.0 0.0 0.00 0.00 0.00 77 1017.8
20260905071342 14 0.0 0.0 0.00 0.00 0.00 77 1017.8
20260905070342 14 0.0 0.0 0.00 0.00 0.00 79 1018.0
20260905065346 13 0.0 0.0 0.00 0.00 0.00 80 1017.9
20260905064341 13 0.0 0.0 0.00 0.00 0.00 81 1017.9
20260905063341 13 0.0 0.0 0.00 0.00 0.00 83 1017.7
20260905062341 13 0.0 0.0 0.00 0.00 0.00 83 1017.8
20260905061341 13 0.0 0.0 0.00 0.00 0.00 83 1017.7
20260905060341 13 0.0 0.0 0.00 0.00 0.00 83 1017.6
20260905055341 13 0.0 0.0 0.00 0.00 0.00 85 1017.6
20260905054341 13 0.0 0.0 0.00 0.00 0.00 86 1017.3
20260905053341 13 0.0 0.0 0.00 0.00 0.00 87 1017.2
20260905052341 13 0.0 0.0 0.00 0.00 0.00 85 1016.9
20260905051341 13 0.0 0.0 0.00 0.00 0.00 84 1016.7
20260905050341 13 0.0 0.0 0.00 0.00 0.00 83 1016.7
20260905045341 13 0.0 0.0 0.00 0.00 0.00 83 1016.5
20260905044341 13 0.0 0.0 0.00 0.00 0.00 82 1016.3
20260905043341 13 0.0 0.0 0.00 0.00 0.00 84 1016.0
20260905042341 13 0.0 0.0 0.00 0.00 0.00 83 1015.6
20260905041341 13 0.0 0.0 0.00 0.00 0.00 84 1015.3
20260905040341 13 0.0 0.0 0.00 0.00 0.00 85 1014.9
20260905035341 13 0.0 0.0 0.00 0.00 0.00 83 1015.4
20260905034341 13 0.0 0.0 0.00 0.00 0.00 83 1015.6
20260905033341 13 0.0 0.0 0.00 0.00 0.00 80 1015.7
20260905032341 13 0.0 0.0 0.00 0.00 0.00 77 1015.9
20260905031341 14 0.0 0.0 0.00 0.00 0.00 74 1016.0
20260905030341 15 0.0 0.0 0.00 0.00 0.00 73 1015.8
20260905025341 15 0.0 0.0 0.00 0.00 0.00 71 1016.0
20260905024341 15 0.0 0.0 0.00 0.00 0.00 69 1016.0
20260905023341 15 0.0 0.0 0.00 0.00 0.00 70 1015.5
20260905022341 15 0.0 0.0 0.00 0.00 0.00 69 1015.2
20260905021341 15 0.0 0.0 0.00 0.00 0.00 68 1015.2
20260905020341 15 0.0 0.0 0.00 0.00 0.00 68 1015.0
20260905015341 15 0.0 0.0 0.00 0.00 0.00 69 1015.1
20260905014341 15 0.0 0.0 0.00 0.00 0.00 68 1015.0
20260905013340 16 0.0 0.0 0.00 0.00 0.00 66 1015.1
20260905012341 16 0.0 0.0 0.00 0.00 0.00 61 1014.4
20260905011341 16 0.0 0.0 0.00 0.00 0.00 59 1014.6
20260905010341 17 0.0 0.0 0.00 0.00 0.00 61 1014.8
20260905005341 17 0.0 0.0 0.00 0.00 0.00 66 1014.5
20260905004341 17 0.0 0.0 0.00 0.00 0.00 66 1014.4
20260905003341 16 0.0 0.0 0.00 0.00 0.00 66 1014.2
20260905002340 17 0.0 0.0 0.00 0.00 0.00 65 1014.0
20260905001341 17 0.0 0.0 0.00 0.00 0.00 64 1014.1
20260905000341 17 0.0 0.0 0.00 0.00 0.00 64 1014.1